User: anonymous   Login
Location: Unspecified
(0.0000°N, 0.0000°E)
Time: 14:37:41
(UTC+00:00)
Language:

Hubble Space Telescope - Orbit

View from above orbital plane
View from above orbital plane
View from above satellite
View from above satellite

Ground track
Ground track

The orbit data is extracted from the following two-line orbital elements,

1 20580U 90037B   15030.11123477  .00003357  00000-0  20888-3 0  2113
2 20580 028.4716 344.1794 0002871 192.7088 282.2126 15.06704683158962
Epoch (UTC): 30 January 2015 02:40:10
Eccentricity: 0.0002871
inclination: 28.4716°
perigee height: 544 km
apogee height: 548 km
right ascension of ascending node: 344.1794°
argument of perigee: 192.7088°
revolutions per day: 15.06704683
mean anomaly at epoch: 282.2126°
orbit number at epoch: 15896

The dashed part of the orbit path shows where the satellite is in the earth's shadow,  

DLR